Погода в Василевичи

Погода в Василевичи : погода сейчас, прогноз погоды и архив. Всё, что Вы хотите узнать о погоде в Василевичи!

Хотите узнать прогноз погоды в Василевичи? Тогда Вам сюда: Погода в Василевичи

Поиск расширенной информации на нашем сайте:

Другие новости

Новости СМИ2

Главная страница сайта

Новости сайта

03.07.2017

Напоминаем, что на нашем специализированном сайте Метеоцентр.Азия вы можете получить высокодетализированные автоматические прогнозы погоды по пунктам России, СНГ и мира в авиационном формате (включающие направление и скорость ветра, видимость, явления погоды, количество и форму облачности, нижнюю и верхнюю границу облачности).


Погода в Василевичи - сегодня

Время (UTC), дата Ветер
(°,м/с) 
Видим.   Явления Облачность Т
(°С)
Тd
(°С)
f(%) Тe
(°С)
Pmin
(гПа)
dP
(гПа)
Po
(мм)
O2
(г/м3)
Тmin Tmax R s Состояние
почвы
00 19.09.17 250 (З) 1{12}  10 км    ясно 
+10.1 +6.8 80 +11  1014.9  2.5  748  290           
03 19.09.17 260 (З) 10 км    3/0 верхняя 
[Ci fib]
+9.3 +6.8 84 +9  1016.3  1.3  749  291           
06 19.09.17 290 (З) 10 км    3/0 верхняя 
[Ci fib]
+11.3 +7.6 78 +11  1017.9  1.7  751  289  +8.2         
09 19.09.17 240 (ЮЗ) 10 км    9/0 верхняя 
[Ci fib]
+16.1 +7.8 58 +17  1018.9  1.3  752  285           
12 19.09.17 250 (З) 20000 м    8/3 1000 м верхняя 
[Cu hum|Ci fib]
+18.5 +6.8 46 +19  1019  0.3  752  283           
15 19.09.17 тихо ()   10 км    8/0 верхняя 
[Ci fib]
+16.4 +8 58 +16  1018.7  -0.4  751  284           
18 19.09.17 тихо ()   10 км    10/0 средняя 
[Ac As]
+12.1 +10.4 89 +14  1020  752  288    +19.2       
21 19.09.17 тихо ()   10 км    10/0 средняя 
[Ac und]
+10.6 +8.8 89 +11  1020.3  0.1  752  290           
00 20.09.17 тихо ()   4000 м    ясно 
+9.3 +7.7 90 +9  1020.1  -0.2  752  292           
03 20.09.17 тихо ()   10 км    10/0 средняя 
[Ac und]
+10.4 +8.6 89 +10  1019.8  -0.3  752  290           
06 20.09.17 120 (ЮВ) 4000 м  дымка  10/0 средняя 
[As op]
+11.1 +9.3 89 +12  1019.7  752  289  +8.8         
09 20.09.17 120 (ЮВ) 10 км    9/1 600 м средняя 
[Cu hum|Ac trans]
+15.4 +10 70 +16  1018.6  -0.8  751  285           
12 20.09.17 100 (В) 20000 м    9/4 600 м средняя 
[Sc|Ac trans]
+16.5 +9.5 63 +18  1017.6  -0.9  751  284           
15 20.09.17 090 (В) 4{11}  10 км    9/4 600 м средняя 
[Sc|Ac trans]
+14.7 +9.1 69 +15  1017.1  -0.6  750  285           
18 20.09.17 080 (В) 10 км  {ливн. осадки}  10/10 600 м 
[Sc]
+11.6 +9.6 88 +12  1017.8  0.5  751  288    +17.7  0.0     
21 20.09.17 080 (В) 10 км    10/10 600 м 
[Sc]
+11.8 +10.1 89 +13  1016.5  -1.3  750  288           
00 21.09.17 090 (В) 10 км    10/10 600 м 
[Sc]
+12 +10.3 89 +13  1015  -1.5  748  287           
03 21.09.17 080 (В) 10 км  гроза без осадков  10/10 600 м кучево-дожд. 
[Cb cap]
+12 +10 88 +13  1014.3  -0.7  748  287           
06 21.09.17 090 (В) 4000 м  дымка{гроза, ливн. осадки}  9/3 1000 м средняя, верхняя 
[Sc diur, vesp|Ac trans|Ci fib]
+12.6 +11.1 91 +15  1013.1  -1.1  747  286  +11    10     
09 21.09.17 120 (ЮВ) 6-10{12}  10 км    8/0 средняя, верхняя 
[Ac trans|Ci fib]
+16.5 +11.4 72 +19  1012.4  -0.4  747  282           
12 21.09.17 110 (В) 5-10{10}  20000 м    8/5 1000 м средняя, верхняя 
[Cu med, cong|Ac trans|Ci fib]
+19.5 +12.8 65 +25  1011.7  -0.5  746  278           
15 21.09.17 090 (В) 3{10}  10 км    8/6 600 м кучево-дожд., средняя, верхняя 
[Cb calv|Ac trans|Ci fib]
+19.5 +13.6 69 +26  1011  -0.7  746  278           
18 21.09.17 100 (В) 10 км    10/10 600 м кучево-дожд. 
[Cb calv]
+18.9 +14.1 74 +26  1010.9  -0.2  746  278    +20.2       
21 21.09.17 120 (ЮВ) 3{10}  10 км    10/10 600 м 
[Sc]
+19.9 +12.6 63 +26  1012.1  1.3  747  278           
00 22.09.17 120 (ЮВ) 10 км  {гроза}  8/8 600 м кучево-дожд. 
[Cb calv]
+18.5 +11.8 65 +23  1012.6  0.4  747  280           
Время (UTC), дата Ветер
(°,м/с) 
Видим.   Явления Облачность Т
(°С)
Тd
(°С)
f(%) Тe
(°С)
Pmin
(гПа)
dP
(гПа)
Po
(мм)
O2
(г/м3)
Тmin Tmax R s Состояние
почвы

Для получения пояснительной информации подведите курсор к названию столбца.

ПОГОДА в Василевичи - архив

Всё, что Вы хотите узнать о погоде в Василевичи - удобно и подробно!

Выберите нужную дату (начиная с 1 января 2015* года) и нажмите кнопку "Найти".
Будут отображены архивные сводки погоды по пункту Василевичи, начиная с указанной даты.


Отображать данные в формате CSV (для использования в таблицах Excel)


Внимание! Наш архив погоды предназначен исключительно для личного некоммерческого использования в познавательных целях. Если Вам необходимы официальные справки о состоянии погоды (для производственных, юридических, коммерческих и т.п. целей), обращайтесь в органы Росгидромета.

*Примечание: данная дата относится к архиву по метеостанциям СССР (Россия, СНГ, Балтия).
Архив по метеостанциям Зарубежной Европы и Азии (кроме Китая) хранится 10 дней, по другим регионам земного шара (Китай, Африка, Америка, Австралия, Океания) - 1 день.

Василевичи - район местоположения метеостанции


Название, широта, долгота, высота метеостанции:
Василевичи 52.2°ш. 29.8°д. 142 м над ур. моря [Беларусь]

Дополнительная информация

В oтличие oт бoльшинства пoгoдных сайтoв мы публикуем пoдрoбную метеoинфoрмацию в детальнoм прoфессиoнальнoм фoрмате.

Характеристики температуры и влажнoсти вoздуха измеряются на высoте 2 м в тени вдали oт зданий и деревьев.
Скoрoсть ветра измеряется на высoте 10 м (на урoвне рoста челoвека скoрoсть ветра ниже в 1.5-2 раза). Если метеoстанция нахoдится в гoрoде или в лесу, тo скoрoсть ветра занижена на 2-4 м/с пo сравнению с oткрытым местoм. Скoрoсть ветра над акватoриями крупных рек и oзёр, а также на вершинах хoлмoв на 2-5 м/с выше, чем в oбычных услoвиях.
Атмoсфернoе давление в разных тoчках местнoсти мoжет значительнo oтличаться oт давления на метеoстанции, в зависимoсти oт услoвий рельефа (при пoдъёме на 10 м давление пoнижается примернo на 1 мм рт.ст.).